[[{"header":{"parameterUnit":"m.s-1","parameterCategory":1,"la1":30.2992,"la2":30.254,"lo1":-89.0895,"lo2":-89.0443,"dy":0.0025,"dx":0.0025,"nx":19,"ny":19,"refTime":"2026-04-25T09:00:00:Z","depth":0,"parameterNumber":2,"parameterNumberName":"U-component_of_WINDS"},"data":[0,0,0,1.0452,1.0453,1.0508,1.0509,1.0578,1.0579,0,0,0,0,0,0,0,0,0,0,0,1.0436,1.0436,1.0452,1.0453,1.0508,1.0509,1.0578,1.0579,0,0,0,0,0,0,0,0,0,0,0,1.0435,1.0436,1.0437,1.0453,1.0508,1.0509,1.0578,1.0536,0,0,0,0,0,0,0,0,0,0,1.0483,1.0469,1.0436,1.0437,1.0454,1.0508,1.0509,1.0534,1.0539,1.0553,0,1.0566,0,1.0573,1.0583,1.0584,0,0,0,1.0453,1.0465,1.0479,1.0437,1.0454,1.0508,1.0483,1.0537,1.0542,1.0559,1.0567,1.057,1.0575,1.0584,1.0584,1.0666,1.0666,0,0,1.045,1.0446,1.0476,1.0483,1.0475,1.0481,1.0485,1.054,1.0548,1.0567,1.0571,1.0576,1.0584,1.0585,1.0666,1.0666,0,0,0,1.0441,1.0444,1.0457,1.048,1.049,1.0483,1.0487,1.0546,1.0551,1.0572,1.0577,1.0585,1.0585,1.0665,1.0666,1.0681,0,0,0,1.0439,1.0439,1.0456,1.0454,1.0489,1.0519,1.0492,1.0547,1.0553,1.0576,1.0585,1.0586,1.0665,1.0666,1.068,1.069,0,0,0,1.0432,1.0438,1.0446,1.0453,1.0477,1.0518,1.0526,1.0548,1.0556,1.0584,1.0586,1.0665,1.0665,1.0679,1.0688,1.0709,0,0,0,1.0423,1.046,1.0446,1.0489,1.0477,1.0528,1.0526,1.0564,1.0589,1.0585,1.0665,1.0666,1.0679,1.0686,1.0708,1.0727,1.0734,0,0,1.0467,1.0465,1.049,1.048,1.0532,1.0519,1.0574,1.0601,1.0607,1.0646,1.0648,1.0681,1.0688,1.0709,1.0778,1.0784,0,0,0,1.0503,1.0521,1.0536,1.056,1.0581,1.06,1.0619,1.0628,1.0661,1.0626,1.0695,1.0699,1.0711,1.0721,1.0726,1.0736,1.067,1.067,1.067,1.056,1.0566,1.0607,1.0619,1.0642,1.066,1.0679,1.0695,1.0694,1.071,1.0722,1.0763,1.0773,1.0777,1.0788,1.0732,1.0732,1.0732,1.0732,1.0625,1.0651,1.0648,1.0687,1.0691,1.0724,1.0742,1.074,1.077,1.0755,1.0767,1.0749,1.0784,1.0793,1.0733,1.0733,1.0733,1.0733,1.0733,1.0663,1.0676,1.0687,1.0721,1.0746,1.0756,1.0785,1.0788,1.0792,1.0803,1.0815,1.0814,1.0814,1.0808,1.0809,1.0809,1.0809,1.0809,1.0809,1.0698,1.071,1.0734,1.0758,1.0773,1.0793,1.081,1.0825,1.0841,1.0841,1.0841,1.0838,1.0786,1.0773,1.0811,1.0811,1.0811,1.081,1.081,1.0762,1.0747,1.0785,1.08,1.0827,1.0851,1.0854,1.0883,1.0895,1.0909,1.0902,1.0864,1.0862,1.0858,1.0847,1.0902,1.0902,1.0902,1.0902,1.0793,1.0792,1.083,1.0853,1.0876,1.0882,1.0923,1.0935,1.0946,1.0954,1.0946,1.0932,1.0928,1.0928,1.0923,1.0912,1.0983,1.0983,1.0983,1.0832,1.0833,1.0867,1.0878,1.0899,1.0917,1.0955,1.098,1.0989,1.0986,1.0959,1.0956,1.0933,1.0925,1.0922,1.0913,1.0894,0,0]},{"header":{"parameterUnit":"m.s-1","parameterCategory":1,"la1":30.2992,"la2":30.254,"lo1":-89.0895,"lo2":-89.0443,"dy":0.0025,"dx":0.0025,"nx":19,"ny":19,"refTime":"2026-04-25T09:00:00:Z","depth":0,"parameterNumber":3,"parameterNumberName":"V-component_of_WINDS"},"data":[0,0,0,2.7339,2.7341,2.7463,2.7463,2.7608,2.7609,0,0,0,0,0,0,0,0,0,0,0,2.7299,2.7299,2.7338,2.7341,2.7463,2.7463,2.7608,2.7609,0,0,0,0,0,0,0,0,0,0,0,2.7298,2.7299,2.73,2.7342,2.7463,2.7463,2.7607,2.7519,0,0,0,0,0,0,0,0,0,0,2.7403,2.7362,2.7299,2.73,2.7343,2.7463,2.7463,2.7515,2.7525,2.7549,0,2.7572,0,2.7593,2.7618,2.7619,0,0,0,2.7344,2.7354,2.7391,2.73,2.7344,2.7462,2.7409,2.752,2.7531,2.7562,2.7574,2.758,2.7595,2.7619,2.762,2.7757,2.7758,0,0,2.7337,2.7318,2.7383,2.7398,2.7381,2.7405,2.7412,2.7527,2.7538,2.7575,2.7583,2.7598,2.762,2.7621,2.7757,2.7757,0,0,0,2.7316,2.7313,2.7347,2.7392,2.7414,2.7408,2.7417,2.7533,2.7546,2.7585,2.7599,2.7621,2.7623,2.7756,2.7757,2.7765,0,0,0,2.7312,2.7301,2.7344,2.7333,2.7412,2.7476,2.742,2.7538,2.7552,2.7599,2.7621,2.7624,2.7756,2.7757,2.7764,2.7772,0,0,0,2.7292,2.7298,2.7315,2.7332,2.7384,2.7475,2.7494,2.7541,2.7561,2.7619,2.7624,2.7755,2.7757,2.7762,2.777,2.7802,0,0,0,2.7264,2.732,2.7315,2.7382,2.7383,2.7479,2.7494,2.7566,2.7617,2.7622,2.7756,2.7757,2.7762,2.7769,2.7801,2.7827,2.7836,0,0,2.7323,2.7326,2.7367,2.7366,2.7459,2.7462,2.7555,2.7619,2.7641,2.7717,2.772,2.7764,2.777,2.7802,2.7892,2.7899,0,0,0,2.7379,2.7408,2.7437,2.7486,2.7537,2.7581,2.7633,2.7656,2.7722,2.7677,2.7785,2.7789,2.7809,2.7822,2.7828,2.7845,2.7762,2.7762,2.7762,2.7435,2.7462,2.7531,2.7572,2.7618,2.7671,2.771,2.775,2.7763,2.7787,2.781,2.7862,2.7876,2.7881,2.7899,2.7826,2.7826,2.7826,2.7826,2.7524,2.757,2.7585,2.7657,2.7684,2.7744,2.7796,2.7802,2.7861,2.7847,2.7866,2.7848,2.7888,2.7905,2.7827,2.7826,2.7826,2.7826,2.7826,2.7564,2.7591,2.7619,2.7691,2.7743,2.7781,2.7837,2.7858,2.7879,2.7897,2.7923,2.7923,2.7925,2.7908,2.7908,2.7908,2.7908,2.7908,2.7909,2.7595,2.7627,2.7672,2.773,2.7764,2.781,2.7862,2.7895,2.7936,2.7947,2.7947,2.7956,2.7887,2.7869,2.7911,2.7911,2.7911,2.791,2.791,2.7676,2.7661,2.7732,2.7765,2.7834,2.7883,2.791,2.7974,2.8004,2.803,2.8035,2.798,2.7984,2.7979,2.7965,2.8029,2.8029,2.8029,2.8029,2.771,2.7714,2.7791,2.7843,2.7895,2.7926,2.8002,2.8042,2.8081,2.81,2.8093,2.8076,2.807,2.8077,2.8071,2.8058,2.8144,2.8144,2.8144,2.7762,2.7772,2.7834,2.7873,2.7928,2.7974,2.8046,2.8102,2.8143,2.8149,2.8115,2.8111,2.8082,2.8072,2.8079,2.8068,2.8044,0,0]}]]